This demonstration page uses our WeatherBlox Daily Observations layout. Learn more.

Left ArrowRight Arrow

Hourly Observations for April 26, 2022

Temp ( °F °C ) Dew Point ( °F °C ) Humidity (%) Winds ( mph kmh ) Pressure ( in mb ) Visibility ( mi km ) Precip ( " mm )
12:53 am 00:53 Clear 37 2.8 17 -8.3 44 44 Calm 30.39 1029 10 16 0.00 0.00
1:53 am 01:53 Clear 31 -0.6 18 -7.8 59 59 Calm 30.39 1029 10 16 0.00 0.00
2:53 am 02:53 Clear 30 -1.1 19 -7.2 64 64 Calm 30.39 1029 10 16 0.00 0.00
3:53 am 03:53 Clear 33 0.6 19 -7.2 56 56 SSW 3 6 30.38 1029 10 16 0.00 0.00
4:53 am 04:53 Clear 37 2.8 16 -8.9 42 42 SSW 6 9 30.37 1028 10 16 0.00 0.00
5:53 am 05:53 Clear 37 2.8 16 -8.9 42 42 SSW 8 13 30.38 1029 10 16 0.00 0.00
6:53 am 06:53 Sunny 36 2.2 16 -8.9 44 44 SSW 6 9 30.38 1029 10 16 0.00 0.00
7:53 am 07:53 Sunny 38 3.3 18 -7.8 44 44 S 7 11 30.38 1029 10 16 0.00 0.00
8:53 am 08:53 Sunny 47 8.3 20 -6.7 34 34 S 9 15 30.37 1029 10 16 0.00 0.00
9:53 am 09:53 Sunny 54 12.2 17 -8.3 23 23 SSW 16 26 30.35 1028 10 16 0.00 0.00
10:53 am 10:53 Sunny 58 14.4 19 -7.2 22 22 SSW 16 26 30.33 1027 10 16 0.00 0.00
11:53 am 11:53 Sunny 61 16.1 21 -6.1 21 21 SSW 16 26 30.31 1026 10 16 0.00 0.00
12:53 pm 12:53 Sunny 66 18.9 23 -5 19 19 SW 14 22 30.26 1025 10 16 0.00 0.00
1:53 pm 13:53 Sunny 68 20 23 -5 18 18 SSW 16 26 30.22 1023 10 16 0.00 0.00
2:53 pm 14:53 Sunny 69 20.6 23 -5 17 17 SSW 15 24 30.18 1022 10 16 0.00 0.00
3:53 pm 15:53 Sunny 71 21.7 25 -3.9 18 18 S 21 33 30.15 1021 10 16 0.00 0.00
4:53 pm 16:53 Sunny 71 21.7 26 -3.3 19 19 SSW 16 26 30.11 1020 10 16 0.00 0.00
5:53 pm 17:53 Sunny 71 21.7 25 -3.9 18 18 S 16 26 30.09 1019 10 16 0.00 0.00
6:53 pm 18:53 Sunny 70 21.1 26 -3.3 19 19 S 16 26 30.07 1018 10 16 0.00 0.00
7:53 pm 19:53 Sunny 67 19.4 26 -3.3 21 21 S 16 26 30.05 1018 10 16 0.00 0.00
8:53 pm 20:53 Clear 63 17.2 26 -3.3 25 25 S 14 22 30.04 1017 10 16 0.00 0.00
9:53 pm 21:53 Clear 60 15.6 26 -3.3 27 27 S 15 24 30.04 1017 10 16 0.00 0.00
10:53 pm 22:53 Clear 58 14.4 26 -3.3 29 29 S 14 22 30.04 1017 10 16 0.00 0.00
11:53 pm 23:53 Clear 57 13.9 26 -3.3 30 30 S 16 26 30.03 1017 10 16 0.00 0.00

Powered by AerisWeather